• In Germany
  • List of Countries
  • For 7 days
  • Water Temperature
  • Satellite Maps
  • Weather Map
  • Weather Widgets
  • user-avatar
    Login

    Hourly Weather Okoyo

    Today, 18 August, Friday

    Time Temperature Precipitation Wind Pressure Humidity
    00:00 +28°C° 0 mm 2 mps 723 mmHg 56%
    01:00 +27°C° 0 mm 2 mps 723 mmHg 57%
    02:00 +27°C° 0 mm 2 mps 723 mmHg 60%
    03:00 +26°C° 0 mm 2 mps 723 mmHg 62%
    04:00 +26°C° 0 mm 2 mps 723 mmHg 64%
    05:00 +26°C° 0 mm 2 mps 724 mmHg 65%
    06:00 +26°C° 0 mm 2 mps 724 mmHg 66%
    07:00 +26°C° 0 mm 2 mps 725 mmHg 67%
    08:00 +28°C° 0 mm 2 mps 725 mmHg 61%
    09:00 +29°C° 0 mm 2 mps 725 mmHg 54%
    10:00 +31°C° 0 mm 2 mps 725 mmHg 48%
    11:00 +34°C° 0 mm 2 mps 724 mmHg 44%
    12:00 +35°C° 0 mm 2 mps 724 mmHg 40%
    13:00 +36°C° 0 mm 1 mps 723 mmHg 36%
    14:00 +35°C° 0 mm 1 mps 722 mmHg 36%
    15:00 +35°C° 0 mm 1 mps 722 mmHg 36%
    16:00 +35°C° 0 mm 1 mps 721 mmHg 36%
    17:00 +34°C° 0 mm 1 mps 722 mmHg 39%
    18:00 +32°C° 0 mm 1 mps 722 mmHg 42%
    19:00 +31°C° 0 mm 1 mps 722 mmHg 45%
    20:00 +31°C° 0 mm 1 mps 722 mmHg 47%
    21:00 +31°C° 0 mm 1 mps 723 mmHg 49%
    22:00 +30°C° 0 mm 1 mps 723 mmHg 51%
    23:00 +29°C° 0 mm 2 mps 723 mmHg 54%

    Tomorrow, 19 August, Saturday

    Time Temperature Precipitation Wind Pressure Humidity
    00:00 +29°C° 0 mm 2 mps 723 mmHg 57%
    01:00 +28°C° 0 mm 2 mps 723 mmHg 60%
    02:00 +28°C° 0.2 mm 2 mps 723 mmHg 63%
    03:00 +27°C° 0.2 mm 2 mps 722 mmHg 67%
    04:00 +26°C° 0.2 mm 2 mps 722 mmHg 71%
    05:00 +26°C° 0.7 mm 2 mps 723 mmHg 71%
    06:00 +27°C° 0.7 mm 2 mps 723 mmHg 72%
    07:00 +27°C° 0.7 mm 3 mps 724 mmHg 72%
    08:00 +28°C° 0.7 mm 3 mps 724 mmHg 67%
    09:00 +30°C° 0.7 mm 3 mps 725 mmHg 61%
    10:00 +31°C° 0.7 mm 3 mps 725 mmHg 55%
    11:00 +32°C° 0.6 mm 2 mps 725 mmHg 52%
    12:00 +34°C° 0.6 mm 2 mps 724 mmHg 48%
    13:00 +34°C° 0.6 mm 1 mps 723 mmHg 44%
    14:00 +34°C° 0.6 mm 1 mps 723 mmHg 46%
    15:00 +33°C° 0.6 mm 1 mps 722 mmHg 47%
    16:00 +32°C° 0.6 mm 1 mps 722 mmHg 49%
    17:00 +31°C° 0.2 mm 2 mps 722 mmHg 54%
    18:00 +30°C° 0.2 mm 2 mps 722 mmHg 60%
    19:00 +29°C° 0.2 mm 2 mps 723 mmHg 65%
    20:00 +29°C° 0.1 mm 2 mps 723 mmHg 68%
    21:00 +28°C° 0.1 mm 1 mps 723 mmHg 70%
    22:00 +27°C° 0.1 mm 1 mps 724 mmHg 73%
    23:00 +27°C° 0.4 mm 1 mps 724 mmHg 74%

    Day after tomorrow, 20 August, Sunday

    Time Temperature Precipitation Wind Pressure Humidity
    00:00 +27°C° 0.4 mm 1 mps 724 mmHg 75%
    01:00 +27°C° 0.4 mm 1 mps 724 mmHg 76%
    02:00 +26°C° 1.1 mm 1 mps 723 mmHg 79%
    03:00 +26°C° 1.1 mm 2 mps 723 mmHg 81%
    04:00 +25°C° 1.1 mm 2 mps 723 mmHg 83%
    05:00 +25°C° 0.5 mm 2 mps 724 mmHg 83%
    06:00 +26°C° 0.5 mm 2 mps 724 mmHg 82%
    07:00 +26°C° 0.5 mm 3 mps 725 mmHg 82%
    08:00 +26°C° 0.5 mm 3 mps 725 mmHg 79%
    09:00 +27°C° 0.5 mm 3 mps 726 mmHg 76%
    10:00 +28°C° 0.5 mm 3 mps 727 mmHg 73%
    11:00 +28°C° 0.6 mm 3 mps 726 mmHg 71%
    12:00 +29°C° 0.6 mm 3 mps 725 mmHg 69%
    13:00 +29°C° 0.6 mm 4 mps 725 mmHg 66%
    14:00 +29°C° 0.3 mm 4 mps 724 mmHg 66%
    15:00 +29°C° 0.3 mm 3 mps 723 mmHg 65%
    16:00 +29°C° 0.3 mm 3 mps 723 mmHg 65%
    17:00 +28°C° 0 mm 2 mps 723 mmHg 68%
    18:00 +27°C° 0 mm 2 mps 724 mmHg 71%
    19:00 +27°C° 0 mm 2 mps 724 mmHg 74%
    20:00 +26°C° 0 mm 2 mps 725 mmHg 75%
    21:00 +26°C° 0 mm 2 mps 725 mmHg 76%
    22:00 +26°C° 0 mm 3 mps 725 mmHg 77%
    23:00 +25°C° 0 mm 3 mps 725 mmHg 78%

    21 August, Monday

    Time Temperature Precipitation Wind Pressure Humidity
    00:00 +25°C° 0 mm 3 mps 725 mmHg 79%
    01:00 +25°C° 0 mm 3 mps 725 mmHg 80%
    02:00 +25°C° 0 mm 3 mps 725 mmHg 80%
    03:00 +24°C° 0 mm 3 mps 724 mmHg 81%
    04:00 +24°C° 0 mm 2 mps 724 mmHg 81%
    05:00 +24°C° 0.1 mm 3 mps 725 mmHg 81%
    06:00 +24°C° 0.1 mm 3 mps 725 mmHg 81%
    07:00 +24°C° 0.1 mm 3 mps 726 mmHg 81%
    08:00 +25°C° 0 mm 3 mps 726 mmHg 76%
    09:00 +26°C° 0 mm 3 mps 726 mmHg 72%
    10:00 +27°C° 0 mm 3 mps 726 mmHg 68%
    11:00 +29°C° 0 mm 3 mps 725 mmHg 62%
    12:00 +31°C° 0 mm 3 mps 725 mmHg 56%
    13:00 +33°C° 0 mm 3 mps 724 mmHg 50%
    14:00 +33°C° 0 mm 3 mps 723 mmHg 49%
    15:00 +33°C° 0 mm 3 mps 722 mmHg 48%
    16:00 +34°C° 0 mm 3 mps 722 mmHg 48%
    17:00 +31°C° 0 mm 3 mps 722 mmHg 52%
    18:00 +30°C° 0 mm 2 mps 723 mmHg 57%
    19:00 +29°C° 0 mm 2 mps 723 mmHg 61%
    20:00 +28°C° 0.2 mm 2 mps 724 mmHg 64%
    21:00 +28°C° 0.2 mm 2 mps 724 mmHg 67%
    22:00 +27°C° 0.2 mm 2 mps 725 mmHg 71%
    23:00 +27°C° 0.6 mm 3 mps 725 mmHg 72%

    22 August, Tuesday

    Time Temperature Precipitation Wind Pressure Humidity
    00:00 +26°C° 0.6 mm 3 mps 724 mmHg 74%
    01:00 +26°C° 0.6 mm 3 mps 724 mmHg 76%
    02:00 +26°C° 0.1 mm 3 mps 724 mmHg 76%
    03:00 +25°C° 0.1 mm 3 mps 724 mmHg 77%
    04:00 +25°C° 0.1 mm 3 mps 724 mmHg 78%
    05:00 +25°C° 0 mm 3 mps 724 mmHg 78%
    06:00 +25°C° 0 mm 2 mps 725 mmHg 79%
    07:00 +25°C° 0 mm 2 mps 725 mmHg 79%
    08:00 +26°C° 0 mm 3 mps 725 mmHg 75%
    09:00 +27°C° 0 mm 3 mps 726 mmHg 71%
    10:00 +28°C° 0 mm 3 mps 726 mmHg 66%
    11:00 +29°C° 0.1 mm 3 mps 725 mmHg 62%
    12:00 +30°C° 0.1 mm 3 mps 724 mmHg 58%
    13:00 +31°C° 0.1 mm 3 mps 724 mmHg 53%
    14:00 +31°C° 0 mm 3 mps 723 mmHg 51%
    15:00 +33°C° 0 mm 3 mps 722 mmHg 49%
    16:00 +32°C° 0 mm 2 mps 722 mmHg 47%
    17:00 +31°C° 0 mm 2 mps 722 mmHg 52%
    18:00 +30°C° 0 mm 2 mps 722 mmHg 57%
    19:00 +29°C° 0 mm 2 mps 723 mmHg 62%
    20:00 +28°C° 0 mm 2 mps 723 mmHg 65%
    21:00 +28°C° 0 mm 2 mps 723 mmHg 69%
    22:00 +27°C° 0 mm 2 mps 724 mmHg 72%
    23:00 +27°C° 0 mm 2 mps 723 mmHg 73%

    23 August, Wednesday

    Time Temperature Precipitation Wind Pressure Humidity
    00:00 +26°C° 0 mm 2 mps 723 mmHg 75%
    01:00 +26°C° 0 mm 2 mps 723 mmHg 76%
    02:00 +26°C° 0 mm 2 mps 723 mmHg 76%
    03:00 +26°C° 0 mm 2 mps 723 mmHg 76%
    04:00 +26°C° 0 mm 2 mps 723 mmHg 76%
    05:00 +26°C° 0 mm 2 mps 723 mmHg 75%
    06:00 +26°C° 0 mm 3 mps 724 mmHg 74%
    07:00 +26°C° 0 mm 3 mps 724 mmHg 73%
    08:00 +27°C° 0 mm 3 mps 724 mmHg 67%
    09:00 +28°C° 0 mm 3 mps 724 mmHg 62%
    10:00 +30°C° 0 mm 3 mps 724 mmHg 57%
    11:00 +31°C° 0 mm 3 mps 724 mmHg 52%
    12:00 +33°C° 0 mm 3 mps 723 mmHg 47%
    13:00 +35°C° 0 mm 3 mps 722 mmHg 43%
    14:00 +35°C° 0 mm 2 mps 722 mmHg 44%
    15:00 +34°C° 0 mm 2 mps 721 mmHg 45%
    16:00 +34°C° 0 mm 2 mps 721 mmHg 45%
    17:00 +32°C° 0 mm 1 mps 721 mmHg 48%
    18:00 +31°C° 0 mm 1 mps 721 mmHg 51%
    19:00 +30°C° 0 mm 1 mps 722 mmHg 54%
    20:00 +30°C° 0.1 mm 1 mps 722 mmHg 57%
    21:00 +29°C° 0.1 mm 1 mps 722 mmHg 60%
    22:00 +28°C° 0.1 mm 1 mps 723 mmHg 63%
    23:00 +28°C° 0.2 mm 1 mps 723 mmHg 66%
    Show more